This is the latest recevied weather packets stored in our database for station/object N9BLE. If no packets are shown the sender has not sent any weather packets the latest 10 day(s).
| Time | Temp. | Humidity | Pressure | Rain* | Wind** | Luminosity | Snow |
|---|---|---|---|---|---|---|---|
| 1777940548 | 19.44° C | 57% | 1001.6 hPa | 0 mm | - | 10 W/m² | - |
| 1777940245 | 19.44° C | 59% | 1001.3 hPa | 0 mm | - | 14 W/m² | - |
| 1777939943 | 19.44° C | 61% | 1001.5 hPa | 0 mm | - | 16 W/m² | - |
| 1777939640 | 19.44° C | 60% | 1001.4 hPa | 0 mm | - | 18 W/m² | - |
| 1777939338 | 20° C | 61% | 1001.4 hPa | 0 mm | - | 22 W/m² | - |
| 1777939034 | 20.56° C | 58% | 1001.7 hPa | 0 mm | - | 25 W/m² | - |
| 1777938730 | 20.56° C | 53% | 1001.7 hPa | 0 mm | - | 26 W/m² | - |
| 1777938428 | 21.11° C | 51% | 1001.6 hPa | 0 mm | - | 33 W/m² | - |
| 1777938124 | 21.11° C | 49% | 1001.3 hPa | 0 mm | - | 40 W/m² | - |
| 1777937820 | 21.11° C | 51% | 1001.6 hPa | 0 mm | - | 59 W/m² | - |
| 1777937516 | 20.56° C | 54% | 1001.8 hPa | 0 mm | - | 76 W/m² | - |
| 1777937214 | 20.56° C | 54% | 1002.3 hPa | 0 mm | - | 124 W/m² | - |
| 1777936911 | 21.67° C | 48% | 1002.4 hPa | 0 mm | - | 107 W/m² | - |
| 1777936608 | 21.11° C | 47% | 1002.3 hPa | 0 mm | - | 47 W/m² | - |
| 1777936304 | 21.11° C | 48% | 1002.4 hPa | 0 mm | - | 36 W/m² | - |
| 1777936000 | 21.11° C | 49% | 1002 hPa | 0 mm | - | 71 W/m² | - |
| 1777935699 | 21.11° C | 48% | 1002 hPa | 0 mm | - | 59 W/m² | - |
| 1777935397 | 21.11° C | 48% | 1001.9 hPa | 0 mm | - | 51 W/m² | - |
| 1777935093 | 21.11° C | 47% | 1001.9 hPa | 0 mm | - | 44 W/m² | - |
| 1777934790 | 21.11° C | 48% | 1002 hPa | 0 mm | - | 75 W/m² | - |
| 1777934486 | 21.11° C | 48% | 1002.2 hPa | 0 mm | - | 103 W/m² | - |
| 1777934184 | 21.67° C | 44% | 1002.1 hPa | 0 mm | - | 102 W/m² | - |
| 1777933880 | 22.78° C | 43% | 1002.5 hPa | 0 mm | - | 46 W/m² | - |
| 1777933577 | 23.33° C | 39% | 1002.6 hPa | 0 mm | - | 16 W/m² | - |
| 1777933274 | 23.89° C | 38% | 1002.2 hPa | 0 mm | - | 37 W/m² | - |
* Rain latest hour (hover to see other rain measurements)
** Current wind speed in m/s (hover to see current wind gust speed)